User: anonymous   Login
Location: Caltech
(34.1382°N, 118.1253°W)
Time: 02:58:24
(UTC-07:00)
Language:

Cosmos 2333 Rocket - Orbit

View from above orbital plane
View from above orbital plane
View from above satellite
View from above satellite

Ground track
Ground track

The orbit data is extracted from the following two-line orbital elements,

1 24298U 96051B   16149.17775720  .00000087  00000-0  73442-4 0  9992
2 24298  70.8335 153.6253 0013112  27.5794 332.6019 14.12402111 17458
Epoch (UTC): 28 May 2016 04:15:58
Eccentricity: 0.0013112
inclination: 70.8335°
perigee height: 841 km
apogee height: 860 km
right ascension of ascending node: 153.6253°
argument of perigee: 27.5794°
revolutions per day: 14.12402111
mean anomaly at epoch: 332.6019°
orbit number at epoch: 1745

The dashed part of the orbit path shows where the satellite is in the earth's shadow,  

DLR